Weather History for Topeka, KS

Change the Weather History Date:

Friday, May 24, 2013

  Actual Average Record
Temperature  
Mean Temperature 63 °F 68 °F  
Max Temperature 76 °F 78 °F 97 °F (1939)
Min Temperature 49 °F 57 °F 39 °F (1966)
Degree Days  
Heating Degree Days 2 2  
Month to date heating degree days 133 88  
Since 1 July heating degree days 4896 5005  
Cooling Degree Days 0 4  
Month to date cooling degree days 65 63  
Year to date cooling degree days 81 91  
Growing Degree Days 12 (Base 50)    
Moisture  
Dew Point 50 °F    
Average Humidity 67    
Maximum Humidity 93    
Minimum Humidity 41    
Precipitation  
Precipitation 0.00 in 0.16 in 2.45 in (1945)
Month to date precipitation 2.15 3.80  
Year to date precipitation 9.72 12.00  
Snow  
Snow 0.00 in 0.00 in 0.00 in ()
Month to date snowfall T 0.0  
Year to date snowfall 24.2 11.3  
Since 1 July snowfall 29.6 17.8  
Snow Depth 0.00 in    
Sea Level Pressure  
Sea Level Pressure 30.21 in    
Wind  
Wind Speed 11 mph (ESE)    
Max Wind Speed 25 mph    
Max Gust Speed 29 mph    
Visibility 10 miles    
Events      
T = Trace of Precipitation, MM = Missing Value Source: NWS Daily Summary

Daily Weather History Graph

Daily Weather History Graph

Search for Another Location

Airport:

Trip Planner

Search our weather history database for the weather conditions in past years. The results will help you decide how hot, cold, wet, or windy it might be!

Date:

Astronomy

May. 24, 2013 Rise Set
Actual Time 6:02 AM CDT 8:36 PM CDT
Civil Twilight 5:31 AM CDT 9:07 PM CDT
Nautical Twilight 4:53 AM CDT 9:46 PM CDT
Astronomical Twilight 4:10 AM CDT 10:29 PM CDT
Moon 8:20 PM CDT (5/24) 5:35 AM CDT (5/24)
Length of Visible Light 15h 36m
Length of Day
14h 34m
Full, 100% of the Moon is Illuminated
May 24
Full
May 24
Full
May 31
Last Quarter
Jun 8
New
Jun 16
First Quarter

Hourly Weather History & Observations

Time (CDT) Temp. Dew Point Humidity Pressure Visibility Wind Dir Wind Speed Gust Speed Precip Events Conditions
12:53 AM 54.0 °F 50.0 °F 86% 30.23 in 10.0 mi Calm Calm - N/A   Clear
1:53 AM 54.0 °F 50.0 °F 86% 30.25 in 10.0 mi Calm Calm - N/A   Clear
2:53 AM 52.0 °F 48.9 °F 89% 30.24 in 10.0 mi East 3.5 mph - N/A   Clear
3:53 AM 52.0 °F 48.9 °F 89% 30.25 in 10.0 mi East 3.5 mph - N/A   Clear
4:53 AM 50.0 °F 48.0 °F 93% 30.26 in 10.0 mi East 3.5 mph - N/A   Clear
5:53 AM 50.0 °F 48.0 °F 93% 30.27 in 9.0 mi East 5.8 mph - N/A   Clear
6:53 AM 53.1 °F 50.0 °F 89% 30.29 in 10.0 mi East 4.6 mph - N/A   Mostly Cloudy
7:53 AM 59.0 °F 54.0 °F 83% 30.28 in 10.0 mi ESE 11.5 mph - N/A   Scattered Clouds
8:53 AM 63.0 °F 51.1 °F 65% 30.29 in 10.0 mi ESE 16.1 mph - N/A   Clear
9:53 AM 66.0 °F 48.0 °F 52% 30.29 in 10.0 mi SE 19.6 mph - N/A   Scattered Clouds
10:53 AM 68.0 °F 48.0 °F 49% 30.27 in 10.0 mi ESE 17.3 mph 26.5 mph N/A   Clear
11:53 AM 71.1 °F 46.9 °F 42% 30.25 in 10.0 mi SE 18.4 mph 26.5 mph N/A   Clear
12:53 PM 72.0 °F 48.9 °F 44% 30.25 in 10.0 mi SE 15.0 mph 25.3 mph N/A   Clear
1:53 PM 73.0 °F 48.0 °F 41% 30.23 in 10.0 mi SE 16.1 mph - N/A   Mostly Cloudy
2:53 PM 73.9 °F 50.0 °F 43% 30.22 in 10.0 mi ESE 13.8 mph - N/A   Overcast
3:53 PM 75.0 °F 52.0 °F 44% 30.19 in 10.0 mi SE 15.0 mph - N/A   Overcast
4:53 PM 73.9 °F 52.0 °F 46% 30.17 in 10.0 mi ESE 13.8 mph - N/A   Overcast
5:53 PM 75.0 °F 52.0 °F 44% 30.14 in 10.0 mi ESE 16.1 mph - N/A   Mostly Cloudy
6:53 PM 73.0 °F 52.0 °F 48% 30.12 in 10.0 mi ESE 16.1 mph - N/A   Clear
7:53 PM 71.1 °F 53.1 °F 53% 30.10 in 10.0 mi ESE 15.0 mph - N/A   Clear
8:53 PM 68.0 °F 53.1 °F 59% 30.10 in 10.0 mi ESE 8.1 mph - N/A   Clear
9:53 PM 64.9 °F 53.1 °F 65% 30.12 in 10.0 mi ESE 6.9 mph - N/A   Clear
10:53 PM 64.0 °F 53.1 °F 67% 30.12 in 10.0 mi ESE 6.9 mph - N/A   Clear
11:53 PM 64.9 °F 52.0 °F 63% 30.13 in 10.0 mi East 5.8 mph - N/A   Clear